Home > Weather > Saanich > Past weeks

Flag for Canada Past Weather in Saanich, British Columbia, Canada — Yesterday and Last 2 Weeks

Now
57 °F

Clear.


Feels Like: 57 °F
Forecast: 56 / 70 °F
Wind: No wind

Location: Victoria Int. Airportb. C.

Current Time: Jul 24, 2016 at 1:59:30 AM

Latest Report: Jul 24, 2016 at 1:00 AM


Visibility: 30 mi

Pressure: 30.18 "Hg

Humidity: 82%

Dew Point: 52 °F

Location of SaanichLocation

Past Weather in Saanich — Graph

°F

Saanich Temperature Yesterday

Maximum temperature yesterday: 72 °F (at 4:00 PM)
Minimum temperature yesterday: 59 °F (at 11:00 PM)
Average temperature yesterday: 65 °F

High & Low Weather Summary for the Past Weeks

 TemperatureHumidityPressure
High79 °F (Jul 21, 3:00 PM)100% (Jul 9, 5:00 AM)30.25 "Hg (Jul 9, 5:00 AM)
Low54 °F (Jul 9, 5:00 AM)39% (Jul 22, 1:00 PM)29.83 "Hg (Jul 9, 1:00 AM)
Average64 °F70%30.07 "Hg
* Reported Jul 9 12:00 AM — Jul 24 12:00 AM, Saanich, Weather by CustomWeather, © 2016

Note: Actual official high and low records may vary slightly from our data, if they occured in-between our weather recording intervals... More about our weather records

Advertising

Saanich Weather History for the Previous 24 Hours

Scroll right to see more
 ConditionsComfort  
Time TempWeatherWind HumidityBarometerVisibility
12:00 AM
Sun, Jul 24
59 °FClear.2 mph77%30.18 "Hg30 mi
11:00 PM
Sat, Jul 23
59 °FClear.2 mph77%30.19 "Hg30 mi
10:00 PM63 °FPassing clouds.5 mph68%30.19 "Hg30 mi
9:00 PM64 °FPassing clouds.7 mph64%30.19 "Hg30 mi
8:00 PM66 °FPassing clouds.9 mph56%30.19 "Hg30 mi
7:00 PM70 °FPassing clouds.10 mph50%30.19 "Hg30 mi
6:00 PM70 °FPassing clouds.10 mph53%30.21 "Hg30 mi
5:00 PM72 °FPassing clouds.9 mph50%30.22 "Hg30 mi
4:00 PM72 °FPassing clouds.10 mph50%30.24 "Hg30 mi
3:00 PM70 °FPassing clouds.10 mph53%30.24 "Hg30 mi
2:00 PM70 °FPassing clouds.9 mph53%30.24 "Hg30 mi
1:00 PM70 °FScattered clouds.9 mph53%30.24 "Hg30 mi
12:00 PM66 °FBroken clouds.9 mph60%30.25 "Hg30 mi
11:00 AM68 °FBroken clouds.8 mph60%30.25 "Hg30 mi
10:00 AM68 °FBroken clouds.5 mph56%30.25 "Hg30 mi
9:00 AM66 °FScattered clouds.3 mph60%30.24 "Hg30 mi
8:00 AM63 °FPartly sunny.3 mph68%30.23 "Hg30 mi
7:00 AM63 °FPartly sunny.6 mph68%30.23 "Hg30 mi
6:00 AM61 °FPassing clouds.6 mph72%30.23 "Hg30 mi
5:00 AM61 °FPassing clouds.10 mph72%30.22 "Hg30 mi
4:00 AM61 °FPassing clouds.9 mph72%30.22 "Hg30 mi
3:00 AM61 °FPassing clouds.10 mph72%30.23 "Hg30 mi
2:00 AM61 °FPassing clouds.7 mph72%30.23 "Hg30 mi
1:00 AM61 °FPassing clouds.7 mph68%30.24 "Hg30 mi
Weather by CustomWeather, © 2016

See weather overviewHow to use our weather pages